Find Kosmos-624

NORAD ID: 6992 Int'l Des: 1973-104 Owner: GUKOSR Country: SU operational
LEOCIRCULAR

リアルタイム位置

3D地球を読み込み中...

Kosmos-624について

説明を読み込み中...

次回通過

Passes for default location (London). Set your location on the main map for personalized predictions.

高度履歴

Loading altitude history...

軌道要素

1 06992U 73104H 26105.62372296 -.00000032 00000-0 -83249-4 0 9999
2 06992 74.0291 232.3932 0086567 296.3662 74.5238 12.61289614409003
Epoch: Apr 15, 2026 • Age: 22 hours

現在のステータス

高度 1488.8 km
速度 7.09 km/s
衛星直下点 45.88°N, 1.21°E
タイプ other

Most Searched